User: anonymous   Login
Location: Unspecified
(0.0000°N, 0.0000°E)
Time: 21:20:15
(UTC+00:00)
Language:

STARLINK-30768 - Orbit

View from above orbital plane
View from above orbital plane
View from above satellite
View from above satellite

Ground track
Ground track

The orbit is defined by the following mean orbital elements,

1 58120U          26145.46822102 +.00000000 +00000-0 +58955-4 0 00008
2 58120  43.0058  58.5268 0001224 278.1649  81.9064 15.27577468    08
Epoch (UTC): 25 May 2026 11:14:14
Eccentricity: 0.0001224
inclination: 43.0058°
perigee height: 482 km
apogee height: 484 km
right ascension of ascending node: 58.5268°
argument of perigee: 278.1649°
revolutions per day: 15.27577468
mean anomaly at epoch: 81.9064°

The dashed part of the orbit path shows where the satellite is in the earth's shadow,  

DLR